www.pogodaiklimat.ru

Погода и климат >> Архив погоды >> Швейцария >> Эвьона


ПОГОДА в Эвьоне

  • Прогноз погоды в Эвьоне
  • Монитор погоды в Эвьоне

АРХИВ ПОГОДЫ в Эвьоне

Время (UTC), дата Ветер
(напр.,м/с)
 
Видим.   Явления Облачность Т
(С)
Тd
(С)
f
(%)
Тe
(С)
Тes
(С)
Комфортность P
(гПа)
Po
(гПа)
Тmin
(С)
Tmax
(С)
R
(мм)
R24
(мм)
S
(см)
07 13.09 ЮВ 4
{8}
н/о н/о +15.3 +10.7 74 +14 +14 1032.3 975.5
08 13.09 ЮВ 5
{9}
н/о н/о +17.0 +11.3 69 +16 +16 1031.9 975.4
09 13.09 ЮВ 4
{10}
н/о н/о +19.9 +11.5 58 +21 +21 комфорт 1031.1 975.2
10 13.09 ЮВ 2
{7}
н/о н/о +22.6 +12.0 51 +25 +25 комфорт 1029.9 974.6
11 13.09 СЗ 3
{5}
н/о н/о +23.1 +12.7 52 +26 +26 жарко 1029.1 974.0
12 13.09 СЗ 4
{10}
н/о н/о +23.6 +13.7 54 +26 +26 жарко 1028.4 973.4
13 13.09 СЗ 6
{11}
н/о н/о +24.2 +13.2 50 +26 +26 жарко 1027.5 972.7
14 13.09 СЗ 8
{13}
н/о н/о +24.7 +14.5 53 +27 +27 жарко 1027.0 972.3
15 13.09 СЗ 7
{13}
н/о н/о +25.1 +14.7 52 +28 +28 жарко 1026.5 971.9
16 13.09 СЗ 5
{11}
н/о н/о +22.8 +15.0 61 +27 +27 душно 1027.0 971.9
17 13.09 СЗ 5
{9}
н/о н/о +22.9 +14.4 59 +27 +27 душно 1027.0 971.9
18 13.09 СЗ 4
{13}
н/о н/о +21.2 +14.8 67 +24 +24 комфорт 1027.3 971.9 +25.3
19 13.09 С 3
{6}
н/о н/о +19.9 +14.5 71 +22 +22 комфорт 1028.4 972.7
20 13.09
{6}
н/о н/о +18.7 +14.3 76 1028.9 972.9
21 13.09 СВ 2
{6}
н/о н/о +18.2 +14.2 77 +19 +19 1029.5 973.4
22 13.09 Ю 2
{4}
н/о н/о +17.5 +13.6 78 +18 +18 1029.6 973.4
23 13.09 Ю 2
{3}
н/о н/о +17.1 +13.4 79 +17 +17 1029.5 973.2
00 14.09 Ю 2
{6}
н/о н/о +18.0 +12.2 69 +19 +19 1029.0 972.9
01 14.09 ЮВ 6
{11}
н/о н/о +19.0 +11.9 63 +19 +19 1028.2 972.3
02 14.09 ЮВ 7
{12}
н/о н/о +18.5 +11.8 65 +18 +18 1028.2 972.2
03 14.09 Ю 3
{12}
н/о н/о +17.5 +11.5 68 +17 +17 1028.2 972.0
04 14.09 ЮЗ 2
{8}
н/о н/о +17.0 +11.7 71 +17 +17 1028.4 972.1
05 14.09 ЮВ 1
{5}
н/о н/о +15.8 +11.7 77 +16 +16 1029.0 972.5
06 14.09 С 1
{12}
н/о н/о +15.2 +11.8 80 +16 +16 1029.9 973.2 +15.4
07 14.09 Ю 2
{2}
н/о н/о +15.0 +12.0 82 +15 +15 1030.3 973.5
08 14.09 Ю 1
{2}
н/о н/о +17.2 +13.0 76 +18 +18 1029.6 973.3
09 14.09 СВ 1
{4}
н/о н/о +20.5 +13.0 62 +24 +24 комфорт 1028.8 973.2
10 14.09 С 4
{6}
н/о н/о +21.7 +13.5 60 +24 +24 комфорт 1028.1 972.8
11 14.09 С 5
{8}
н/о н/о +22.0 +14.4 62 +25 +25 комфорт 1027.1 971.9
12 14.09 СЗ 5
{9}
н/о н/о +22.9 +14.1 58 +26 +26 жарко 1026.1 971.1
13 14.09 СЗ 6
{11}
н/о н/о +23.6 +14.5 57 +26 +26 жарко 1025.2 970.4
14 14.09 СЗ 6
{12}
н/о н/о +24.4 +15.3 57 +27 +27 жарко 1024.5 969.9
15 14.09 СЗ 7
{13}
н/о н/о +24.3 +15.4 58 +27 +27 жарко 1023.9 969.3
16 14.09 СЗ 6
{11}
н/о н/о +23.0 +15.7 63 +27 +27 душно 1024.1 969.2
17 14.09 СЗ 5
{11}
н/о н/о +22.4 +15.4 65 +26 +26 жарко 1024.5 969.5
18 14.09 СЗ 5
{13}
н/о н/о +21.4 +15.4 69 +25 +25 комфорт 1025.2 970.0 +24.4
19 14.09 СЗ 2
{8}
н/о н/о +20.5 +15.4 73 +24 +24 комфорт 1026.1 970.6
20 14.09 СЗ 2
{4}
н/о н/о +19.6 +15.8 79 +22 +22 комфорт 1026.5 970.8
21 14.09 З 1
{8}
н/о н/о +18.4 +14.8 80 +20 +20 1026.7 970.8
22 14.09 Ю 2
{4}
н/о н/о +18.4 +15.3 82 +19 +19 1026.5 970.6
23 14.09 ЮЗ 2
{5}
н/о н/о +19.6 +14.6 73 +22 +22 комфорт 1025.9 970.3
00 15.09 З 1
{8}
н/о н/о +17.9 +14.4 80 +19 +19 1026.5 970.5
01 15.09 Ю 1
{2}
н/о н/о +16.6 +14.3 86 +17 +17 1026.9 970.6
02 15.09 ЮЗ 2
{3}
н/о н/о +17.7 +13.9 78 +18 +18 1026.1 970.1
03 15.09 Ю 2
{4}
н/о н/о +18.0 +13.6 75 +19 +19 1025.9 970.0
04 15.09 Ю 1
{4}
н/о н/о +16.6 +13.6 82 +17 +17 1026.4 970.2
05 15.09 Ю 2
{3}
н/о н/о +16.1 +13.6 85 +16 +16 1026.9 970.5
06 15.09 Ю 2
{5}
н/о н/о +16.4 +13.5 83 +16 +16 1026.5 970.2 +15.9
07 15.09 Ю 2
{7}
н/о н/о +17.4 +13.5 78 +18 +18 1026.1 970.0
08 15.09 Ю 3
{7}
н/о н/о +19.1 +13.6 70 +20 +20 1025.8 970.1
09 15.09 Ю 3
{7}
н/о н/о +21.1 +13.8 63 +24 +24 комфорт 1025.1 969.8
10 15.09 СЗ 4
{6}
н/о н/о +22.4 +14.5 61 +26 +26 жарко 1024.7 969.7
11 15.09 СЗ 5
{8}
н/о н/о +23.1 +15.3 61 +27 +27 душно 1024.0 969.1
12 15.09 СЗ 6
{11}
н/о н/о +24.6 +16.0 59 +28 +28 душно 1022.6 968.1
13 15.09 СЗ 5
{11}
н/о н/о +26.1 +14.6 49 +29 +29 жарко 1021.8 967.6
14 15.09 СЗ 8
{12}
н/о н/о +26.4 +12.7 43 +28 +28 жарко 1020.9 966.8
15 15.09 СЗ 5
{12}
н/о н/о +26.5 +13.9 46 +29 +29 жарко 1020.3 966.3
16 15.09 СЗ 4
{8}
н/о н/о +24.7 +14.0 51 +27 +27 жарко 1020.4 966.0
17 15.09 СЗ 2
{7}
н/о н/о +23.5 +14.5 57 +26 +26 жарко 1020.5 965.9
18 15.09 С 2
{12}
н/о н/о +21.9 +15.2 66 +25 +25 комфорт 1020.8 965.9 +26.6
19 15.09 СЗ 2
{4}
н/о н/о +21.0 +15.1 69 +25 +25 комфорт 1021.4 966.3
20 15.09 СЗ 1
{3}
н/о н/о +19.6 +14.4 72 +23 +23 комфорт 1021.9 966.5
21 15.09 С 2
{4}
н/о н/о +19.2 +13.9 71 +21 +21 комфорт 1022.1 966.6
22 15.09 С 1
{3}
н/о н/о +18.1 +13.7 75 +20 +20 1022.4 966.7
23 15.09 Ю 2
{3}
н/о н/о +17.3 +13.8 80 +18 +18 1022.8 966.9
00 16.09 Ю 2
{4}
н/о н/о +17.4 +13.5 78 +18 +18 1022.8 966.9
01 16.09 Ю 2
{4}
н/о н/о +17.5 +13.1 75 +18 +18 1022.5 966.6
02 16.09 Ю 2
{4}
н/о н/о +17.5 +12.9 74 +18 +18 1022.3 966.5
03 16.09 ЮВ 2
{5}
н/о н/о +17.0 +12.7 76 +17 +17 1022.4 966.5
04 16.09 Ю 4
{7}
н/о н/о +17.0 +12.6 75 +17 +17 1021.9 966.0
05 16.09 Ю 4
{7}
н/о н/о +17.3 +12.4 73 +17 +17 1021.6 965.8
06 16.09 Ю 4
{7}
н/о н/о +16.8 +12.3 75 +16 +16 1022.0 966.0 +16.9
07 16.09 Ю 2
{7}
н/о н/о +17.1 +12.3 73 +17 +17 1022.1 966.2
08 16.09 Ю 4
{9}
н/о н/о +19.0 +13.0 68 +20 +20 1021.5 966.0
09 16.09 ЮВ 4
{9}
н/о н/о +20.9 +13.4 62 +24 +24 комфорт 1020.7 965.6
10 16.09 ЮВ 2
{6}
н/о н/о +24.0 +13.7 53 +26 +26 жарко 1019.8 965.3
11 16.09 С 5
{9}
н/о н/о +24.5 +15.0 55 +27 +27 жарко 1019.2 964.9
12 16.09 СЗ 5
{10}
н/о н/о +25.7 +15.1 52 +29 +29 душно 1018.3 964.2
13 16.09 СЗ 5
{9}
н/о н/о +26.7 +14.2 46 +29 +29 жарко 1017.3 963.5
14 16.09 СЗ 4
{8}
н/о н/о +27.4 +13.6 43 +29 +29 жарко 1016.8 963.1
15 16.09 СЗ 4
{9}
н/о н/о +25.5 +12.8 45 +27 +27 жарко 1017.0 963.0
16 16.09 СЗ 2
{7}
н/о н/о +25.2 +13.4 48 +27 +27 жарко 1016.8 962.7
17 16.09 СЗ 2
{4}
н/о н/о +23.7 +13.4 52 +26 +26 жарко 1016.5 962.2
18 16.09 С 2
{9}
н/о н/о +22.5 +15.1 63 +26 +26 жарко 1017.2 962.6 +27.4
19 16.09 С 3
{5}
н/о н/о +21.7 +14.5 64 +25 +25 комфорт 1017.8 963.0
20 16.09 З 1
{5}
н/о н/о +20.0 +13.7 67 +24 +24 комфорт 1018.2 963.1
21 16.09 СЗ 1
{5}
н/о н/о +19.0 +13.5 70 +21 +21 комфорт 1018.7 963.3
22 16.09 Ю 1
{2}
н/о н/о +18.5 +13.3 72 +21 +21 комфорт 1018.8 963.3
23 16.09 Ю 1
{2}
н/о н/о +17.6 +13.2 75 +19 +19 1018.9 963.3
00 17.09 Ю 2
{5}
н/о н/о +17.9 +13.4 75 +19 +19 1018.7 963.1
01 17.09 Ю 2
{4}
н/о н/о +17.8 +12.6 72 +18 +18 1018.6 963.0
02 17.09 Ю 2
{4}
н/о н/о +17.4 +12.2 72 +18 +18 1018.7 963.0
03 17.09 Ю 3
{4}
н/о н/о +16.9 +11.8 72 +17 +17 1018.7 962.9
04 17.09 Ю 2
{4}
н/о н/о +16.2 +11.7 75 +16 +16 1018.8 962.9
05 17.09 Ю 3
{7}
н/о н/о +16.8 +11.5 71 +17 +17 1018.6 962.8
06 17.09 Ю 3
{7}
н/о н/о +16.4 +11.4 72 +16 +16 1019.0 963.1 +16.2
07 17.09 Ю 4
{5}
н/о н/о +16.0 +11.5 75 +15 +15 1019.0 963.0
08 17.09 ЮВ 3
{5}
н/о н/о +18.3 +12.1 67 +19 +19 1018.6 963.1
09 17.09 Ю 2
{5}
н/о н/о +21.2 +12.7 58 +23 +23 комфорт 1017.9 963.0
10 17.09 С 2
{4}
н/о н/о +23.4 +13.6 54 +27 +27 душно 1016.8 962.4
11 17.09 СЗ 5
{10}
н/о н/о +25.3 +14.3 51 +28 +28 жарко 1015.5 961.5
12 17.09 СЗ 6
{11}
н/о н/о +25.8 +13.8 47 +28 +28 жарко 1015.1 961.2
13 17.09 СЗ 6
{12}
н/о н/о +26.7 +13.4 44 +29 +29 жарко 1014.4 960.7
14 17.09 С 6
{12}
н/о н/о +26.8 +10.9 37 +28 +28 жарко 1014.1 960.5
15 17.09 СЗ 5
{12}
н/о н/о +26.0 +10.0 37 +27 +27 жарко 1014.1 960.3
16 17.09 СЗ 4
{8}
н/о н/о +24.5 +10.5 41 +26 +26 жарко 1014.3 960.2
17 17.09 СЗ 4
{6}
н/о н/о +23.5 +9.9 42 +25 +25 комфорт 1014.4 960.1
18 17.09 СЗ 4
{12}
н/о н/о +22.8 +10.7 46 +25 +25 комфорт 1014.5 960.1 +27.1
19 17.09 СЗ 3
{5}
н/о н/о +21.6 +10.3 49 +23 +23 комфорт 1015.3 960.6
20 17.09 СЗ 2
{5}
н/о н/о +19.7 +10.7 56 +22 +22 комфорт 1016.0 960.9
21 17.09 С 2
{5}
н/о н/о +18.7 +10.9 60 +20 +20 1016.6 961.3
22 17.09 С 3
{4}
н/о н/о +18.7 +10.5 59 +20 +20 1016.6 961.3
23 17.09 С 3
{4}
н/о н/о +18.3 +10.4 60 +19 +19 1016.5 961.1
00 18.09 С 2
{5}
н/о н/о +16.9 +10.5 66 +17 +17 1017.1 961.4
01 18.09 С 2
{4}
н/о н/о +16.5 +11.3 71 +17 +17 1017.2 961.4
02 18.09 С 2
{4}
н/о н/о +16.5 +12.1 75 +17 +17 1017.4 961.6
03 18.09 С 2
{4}
н/о н/о +15.9 +12.3 79 +16 +16 1017.6 961.7
04 18.09 С 2
{3}
н/о н/о +15.6 +12.6 82 +16 +16 1017.9 961.9
05 18.09 СЗ 3
{5}
н/о н/о +15.3 +12.6 84 +15 +15 1018.4 962.3
06 18.09 СЗ 2
{5}
н/о н/о +15.4 +12.5 83 +15 +15 1018.9 962.8 +15.3
07 18.09 СЗ 2
{6}
н/о н/о +15.7 +12.2 80 +16 +16 1019.1 963.1
08 18.09 С 1
{3}
н/о н/о +16.2 +12.8 80 +17 +17 1018.8 962.9
09 18.09 СЗ 2
{6}
н/о н/о +17.6 +12.7 73 +18 +18 1018.3 962.7
10 18.09 СЗ 4
{8}
н/о н/о +18.0 +13.3 74 +18 +18 1018.3 962.8
11 18.09 С 5
{9}
н/о н/о +16.6 +12.2 75 +16 +16 1018.6 962.8
12 18.09 С 6
{11}
н/о н/о +16.4 +12.1 76 +15 +15 1018.7 962.8
13 18.09 С 7
{12}
н/о н/о +17.3 +11.9 71 +16 +16 1018.3 962.6
14 18.09 С 6
{13}
н/о н/о +17.6 +12.1 70 +17 +17 1018.2 962.6
15 18.09 С 6
{13}
н/о н/о +18.3 +12.0 67 +18 +18 1017.6 962.2
16 18.09 СЗ 6
{11}
н/о н/о +17.3 +12.0 71 +17 +17 1017.8 962.2
17 18.09 СЗ 5
{10}
н/о н/о +17.1 +12.1 72 +17 +17 1017.9 962.2
18 18.09 СЗ 4
{13}
н/о н/о +17.2 +12.1 72 +17 +17 1018.5 962.8 +18.3
19 18.09 СЗ 4
{8}
н/о н/о +17.2 +12.1 72 +17 +17 1018.9 963.2
20 18.09 СЗ 3
{7}
н/о н/о +17.2 +12.2 72 +17 +17 1019.1 963.4
21 18.09 СЗ 1
{8}
н/о н/о +16.9 +12.2 74 +18 +18 1019.4 963.6
22 18.09 СЗ 2
{4}
н/о н/о +16.6 +12.5 77 +17 +17 1019.7 963.8
23 18.09 СЗ 3
{6}
н/о н/о +16.4 +11.7 74 +16 +16 1020.0 964.1
00 19.09 СЗ 2
{8}
н/о н/о +16.0 +11.5 75 +16 +16 1020.3 964.3
01 19.09 СЗ 3
{6}
н/о н/о +15.6 +11.1 75 +15 +15 1020.2 964.1
02 19.09 СЗ 3
{6}
н/о н/о +15.1 +10.7 75 +15 +15 1020.5 964.3
03 19.09 СЗ 2
{6}
н/о н/о +14.8 +10.7 76 +15 +15 1020.4 964.1
04 19.09 СЗ 2
{5}
н/о н/о +14.5 +10.2 75 +14 +14 1020.2 963.9
05 19.09 СЗ 3
{6}
н/о н/о +14.1 +9.6 74 +13 +13 1020.4 964.0
06 19.09 СЗ 3
{7}
н/о н/о +13.5 +9.0 74 +13 +13 1021.2 964.6 +13.7
07 19.09 СЗ 4
{6}
н/о н/о +13.0 +8.5 74 +11 +11 1021.7 965.0
08 19.09 СЗ 4
{7}
н/о н/о +12.9 +8.5 75 +11 +11 1022.3 965.5
09 19.09 СЗ 3
{7}
н/о н/о +13.4 +8.7 73 +12 +12 1022.3 965.6
10 19.09 СЗ 4
{7}
н/о н/о +14.2 +8.9 70 +13 +13 1022.1 965.6
11 19.09 С 6
{9}
н/о н/о +16.2 +9.4 64 +15 +15 1021.2 965.2
12 19.09 СЗ 5
{9}
н/о н/о +17.4 +10.1 62 +17 +17 1020.4 964.6
13 19.09 СЗ 7
{12}
н/о н/о +18.2 +9.8 58 +18 +18 1019.7 964.1
14 19.09 СЗ 8
{12}
н/о н/о +18.9 +9.6 55 +19 +19 1019.3 963.9
15 19.09 СЗ 7
{13}
н/о н/о +18.9 +9.6 55 +19 +19 1019.1 963.7
16 19.09 СЗ 5
{11}
н/о н/о +17.4 +10.0 62 +17 +17 1019.4 963.7
17 19.09 СЗ 5
{9}
н/о н/о +16.9 +10.1 64 +16 +16 1019.5 963.7
18 19.09 СЗ 5
{13}
н/о н/о +16.5 +9.9 65 +16 +16 1020.2 964.3 +19.1
19 19.09 СЗ 4
{8}
н/о н/о +15.8 +9.4 66 +15 +15 1021.2 965.1
20 19.09 С 1
{5}
н/о н/о +14.5 +9.2 70 +15 +15 1022.2 965.8
21 19.09 С 1
{8}
н/о н/о +13.3 +9.3 77 +13 +13 1023.2 966.5
22 19.09 СЗ 1
{2}
н/о н/о +12.5 +9.1 80 +13 +13 1023.7 966.8
23 19.09 С 1
{2}
н/о н/о +12.0 +9.0 82 +13 +13 1023.9 966.9
00 20.09 СЗ 1
{8}
н/о н/о +11.7 +9.1 84 +12 +12 1024.6 967.5
01 20.09 С 1
{2}
н/о н/о +11.0 +8.9 87 +12 +12 1024.4 967.1
02 20.09 СЗ 1
{3}
н/о н/о +10.5 +8.9 90 +10 +10 1024.9 967.5
03 20.09 Ю 2
{3}
н/о н/о +10.1 +8.8 92 +9 +9 1024.8 967.3
04 20.09 СЗ 1
{2}
н/о н/о +10.0 +8.8 92 +9 +9 1024.7 967.2
05 20.09 ЮЗ 1
{2}
н/о н/о +9.9 +8.8 93 +10 +10 1024.7 967.2
06 20.09 С 1
{3}
н/о н/о +9.6 +8.6 93 +9 +9 1025.3 967.7 +9.6
07 20.09 С 1
{3}
н/о н/о +10.0 +8.8 92 +9 +9 1025.6 968.1

 

Местоположение метеостанции Эвьона (Швейцария): широта 46.18 долгота 7.03 высота над уровнем моря 482 м.

В архиве по умолчанию представлена погода в Эвьоне за последнюю неделю. Архивные данные за месяц целиком и за предыдущие месяцы, начиная с января 2011 года, Вы можете получить, выбрав интересующий диапазон дат из раскрывающегося списка и нажав кнопку "Ввод!".


*Определитесь, кто Вы:
робот инопланетянин человек

Внимание! Время в таблицах - всемирное. Для получения местного времени необходимо прибавить поправку, которая равна 1 ч.

Смотрите также архив погоды в соседних городах и на ближайших метеорологических станциях:

Погода в Сальване (Швейцария) (7 км)
Погода в Фее (Швейцария) (18 км)
Погода в Эгле (Швейцария) (19 км)
Погода в Монтанье-Баньес (Швейцария) (20 км)
Погода в Лез Алта (Швейцария) (21 км)
Погода на Ле-Дьяблере (Швейцария) (21 км)
Погода в Сьоне (Швейцария) (24 км)
Погода в Коль де Моссе (Швейцария) (24 км)
Погода в Ле-Бувре (Швейцария) (27 км)
Погода в Монтрё-Кларане (Швейцария) (32 км)

Пояснения к столбцам:

Ветер - указаны скорость ветра в м/с - средняя за 10 мин, порывы в срок и между сроками (в фигурных скобках) и направление, откуда дует ветер: С - северный, СВ - северо-восточный, В - восточный, ЮВ - юго-восточный, Ю - южный, ЮЗ - юго-западный, З - западный, СЗ - северо-западный.
Видимость - горизонтальная дальность видимости в метрах или километрах. При видимости от 1 до 10 км при отсутствии осадков обычно наблюдается дымка, при ухудшении видимости до 1 км и менее - туман. В сухую погоду видимость может ухудшаться дымом, пылью или мглою.
Явления - указаны атмосферные явления, наблюдавшиеся в срок или в последний час перед сроком; фигурными скобками обозначены явления, наблюдавшиеся между сроками (за 1-3 часа до срока); квадратными скобками обозначены град или гололедные отложения с указанием их диаметра в мм.
Облачность - указаны через наклонную черту общая и нижняя облачность в баллах и высота нижней границы облаков в метрах; квадратными скобками обозначены формы облаков: Ci - перистые, Cs - перисто-слоистые, Cc - перисто-кучевые, Ac - высококучевые, As - высокослоистые, Sc - слоисто-кучевые, Ns - слоисто-дождевые, Cu - кучевые, Cb - кучево-дождевые. Подробнее классификацию облаков см. в Атласе облаков (PDF).
T - Температура воздуха - температура, измеренная на высоте 2 м над землей.
Td - Температура точки росы - температура, при понижении до которой содержащийся в воздухе водяной пар достигнет насыщения.
f - Относительная влажность воздуха - влажноcть воздуха, измеренная на высоте 2 м над землей.
Te - Эффективная температура - температура, которую ощущает одетый по сезону человек в тени. Характеристика душности погоды. При расчете учитывается влияние влажности воздуха и скорости ветра на теплоощущения человека.
Tes - Эффективная температура на солнце - температура, которую ощущает человек, с поправкой на солнечный нагрев. Характеристика знойности погоды. Зависит от высоты солнца над горизонтом, облачности и скорости ветра. Ночью, в пасмурную погоду, а также при ветре 12 м/с и более поправка равна нулю.
P - Атмосферное давление - приведенное к уровню моря атмосферное давление.
Po - Атмосферное давление - измеренное на уровне метеостанции атмосферное давление.
Tmin - Минимальная температура - минимум температуры воздуха на высоте 2 м над землей.
Tmax - Максимальная температура - максимум температуры воздуха на высоте 2 м над землей.
R - Количество осадков - Количество выпавших осадков за период времени, мм. При наведении курсора мыши на число - период времени, за который выпало указанное количество осадков.
R24 - Количество осадков - Количество выпавших осадков за 24 часа, мм.
S - Снежный покров - Высота снежного покрова, см. При наведении курсора мыши на число - состояние снежного покрова и степень покрытия местности в баллах.